Weather History for Meridian, MS

Change the Weather History Date:

Wednesday, April 17, 2013

  Actual Average Record
Temperature  
Mean Temperature 75 °F 63 °F  
Max Temperature 85 °F 77 °F 90 °F (1955)
Min Temperature 64 °F 49 °F 32 °F (1951)
Degree Days  
Heating Degree Days 0 4  
Month to date heating degree days 77 94  
Since 1 July heating degree days 2398 2498  
Cooling Degree Days 10 2  
Month to date cooling degree days 47 25  
Year to date cooling degree days 66 49  
Growing Degree Days 24 (Base 50)    
Moisture  
Dew Point 66 °F    
Average Humidity 78    
Maximum Humidity 100    
Minimum Humidity 55    
Precipitation  
Precipitation 0.00 in 0.15 in 3.46 in (1900)
Month to date precipitation 3.01 2.84  
Year to date precipitation 25.59 18.99  
Sea Level Pressure  
Sea Level Pressure 30.06 in    
Wind  
Wind Speed 7 mph (SSE)    
Max Wind Speed 16 mph    
Max Gust Speed 22 mph    
Visibility 8 miles    
Events Fog    
T = Trace of Precipitation, MM = Missing Value Source: NWS Daily Summary

Daily Weather History Graph

Daily Weather History Graph

Search for Another Location

Airport:

Trip Planner

Search our weather history database for the weather conditions in past years. The results will help you decide how hot, cold, wet, or windy it might be!

Date:

Astronomy

Apr. 17, 2013 Rise Set
Actual Time 6:23 AM CDT 7:26 PM CDT
Civil Twilight 5:57 AM CDT 7:51 PM CDT
Nautical Twilight 5:27 AM CDT 8:21 PM CDT
Astronomical Twilight 4:57 AM CDT 8:52 PM CDT
Moon 11:43 AM CDT (4/17) 12:56 AM CDT (4/17)
Length of Visible Light 13h 53m
Length of Day
13h 03m
Waxing Crescent, 42% of the Moon is Illuminated
Apr 17
Waxing Crescent
Apr 18
First Quarter
Apr 25
Full
May 2
Last Quarter
May 9
New

Hourly Weather History & Observations

Time (CDT) Temp. Heat Index Dew Point Humidity Pressure Visibility Wind Dir Wind Speed Gust Speed Precip Events Conditions
12:58 AM 68.0 °F - 66.9 °F 96% 30.10 in 9.0 mi Calm Calm - N/A   Clear
1:58 AM 68.0 °F - 66.9 °F 96% 30.09 in 9.0 mi Calm Calm - N/A   Clear
2:58 AM 68.0 °F - 66.9 °F 96% 30.08 in 8.0 mi Calm Calm - N/A   Clear
3:58 AM 66.9 °F - 66.0 °F 97% 30.07 in 7.0 mi Calm Calm - N/A   Clear
4:30 AM 66.2 °F - 66.2 °F 100% 30.08 in 1.8 mi Calm Calm - N/A   Partly Cloudy
4:45 AM 66.2 °F - 64.4 °F 94% 30.09 in 4.0 mi Calm Calm - N/A   Scattered Clouds
4:58 AM 66.0 °F - 64.9 °F 96% 30.07 in 1.0 mi Calm Calm - N/A   Mist
5:05 AM 66.2 °F - 64.4 °F 94% 30.08 in 0.2 mi Calm Calm - N/A Fog Fog
5:13 AM 64.4 °F - 64.4 °F 100% 30.08 in 0.8 mi Calm Calm - N/A   Mist
5:30 AM 66.2 °F - 64.4 °F 94% 30.08 in 1.5 mi Calm Calm - N/A   Scattered Clouds
5:32 AM 66.2 °F - 64.4 °F 94% 30.08 in 4.0 mi Calm Calm - N/A   Scattered Clouds
5:58 AM 64.9 °F - 64.0 °F 97% 30.08 in 6.0 mi Calm Calm - N/A   Clear
6:58 AM 66.0 °F - 64.0 °F 93% 30.11 in 7.0 mi Calm Calm - N/A   Clear
7:58 AM 69.1 °F - 66.9 °F 93% 30.13 in 9.0 mi Calm Calm - N/A   Clear
8:58 AM 73.0 °F - 66.0 °F 79% 30.12 in 10.0 mi SE 5.8 mph - N/A   Clear
9:58 AM 75.9 °F - 66.0 °F 71% 30.13 in 8.0 mi SSE 4.6 mph - N/A   Clear
10:58 AM 77.0 °F - 64.9 °F 66% 30.13 in 10.0 mi ESE 3.5 mph - N/A   Clear
11:58 AM 79.0 °F - 66.0 °F 64% 30.11 in 10.0 mi South 10.4 mph 16.1 mph N/A   Clear
12:58 PM 81.0 °F 83.8 °F 68.0 °F 65% 30.09 in 10.0 mi South 10.4 mph - N/A   Partly Cloudy
1:58 PM 82.9 °F 85.4 °F 66.9 °F 58% 30.06 in 10.0 mi SSE 12.7 mph - N/A   Partly Cloudy
2:58 PM 84.0 °F 86.5 °F 66.9 °F 56% 30.04 in 10.0 mi South 10.4 mph - N/A   Partly Cloudy
3:58 PM 84.0 °F 86.5 °F 66.9 °F 56% 30.02 in 10.0 mi SSE 10.4 mph - N/A   Clear
4:58 PM 84.0 °F 86.5 °F 66.9 °F 56% 30.00 in 10.0 mi SSE 12.7 mph - N/A   Partly Cloudy
5:58 PM 82.9 °F 85.0 °F 66.0 °F 56% 29.99 in 10.0 mi South 11.5 mph 19.6 mph N/A   Partly Cloudy
6:58 PM 81.0 °F 83.3 °F 66.9 °F 62% 29.98 in 10.0 mi SSE 9.2 mph - N/A   Clear
7:58 PM 77.0 °F - 66.9 °F 71% 29.98 in 10.0 mi SSE 6.9 mph - N/A   Clear
8:58 PM 75.2 °F - 66.2 °F 73% 29.99 in 10.0 mi SSE 8.1 mph - N/A   Clear
9:58 PM 73.9 °F - 68.0 °F 82% 30.00 in 10.0 mi South 10.4 mph - N/A   Clear
10:58 PM 72.0 °F - 66.9 °F 84% 29.99 in 10.0 mi South 13.8 mph - N/A   Clear
11:58 PM 70.0 °F - 64.9 °F 84% 29.98 in 10.0 mi SSE 9.2 mph - N/A   Clear